^^
Saratoga-Weather Station Historical Data
Daily Summary for April 3, 2020 Units:  Metric    English   Both
Daily Weekly Monthly Yearly Custom
  High: Low: Average:
Temperature: 16.4 °C 13.2 °C 14.5 °C
Dew Point: 11.8 °C 10.7 °C 11.3 °C
Humidity: 85% 74% 81%
Wind Speed: 4.7km/h 0km/h 1.8km/h
Wind Gust: 6.4km/h - -
Wind- - WNW
Pressure: 1016.6 hPa 1015.6 hPa -
Precipitation: 0.0 mm    
Historical Graphs
 
 
Tabular Data for April 3, 2020
Time Temperature Dew Point Pressure Wind Wind Speed Wind Gust Humidity Rainfall Rate (Hourly) solar
00:02 16.4 °C 11.8 °C 1015.6 hPa WNW 1.4 km/h 3.2 km/h 74% 0.0 mm 0 W/m2
00:07 16.2 °C 11.8 °C 1015.6 hPa WNW 1.4 km/h 1.6 km/h 75% 0.0 mm 0 W/m2
00:12 16.1 °C 11.7 °C 1015.6 hPa Calm   1.6 km/h 75% 0.0 mm 0 W/m2
00:17 15.9 °C 11.7 °C 1015.6 hPa WNW 1.4 km/h 1.6 km/h 76% 0.0 mm 0 W/m2
00:22 15.8 °C 11.8 °C 1015.6 hPa Calm   1.6 km/h 77% 0.0 mm 0 W/m2
00:27 15.6 °C 11.8 °C 1015.6 hPa Calm     78% 0.0 mm 0 W/m2
00:32 15.4 °C 11.6 °C 1015.6 hPa Calm     78% 0.0 mm 0 W/m2
00:37 15.3 °C 11.7 °C 1015.6 hPa WNW 1.4 km/h 1.6 km/h 79% 0.0 mm 0 W/m2
00:42 15.1 °C 11.5 °C 1015.6 hPa WNW 1.4 km/h 1.6 km/h 79% 0.0 mm 0 W/m2
00:47 14.9 °C 11.5 °C 1015.6 hPa WNW 3.2 km/h 3.2 km/h 80% 0.0 mm 0 W/m2
00:52 14.8 °C 11.4 °C 1015.9 hPa WNW 3.2 km/h 3.2 km/h 80% 0.0 mm 0 W/m2
00:57 14.8 °C 11.6 °C 1015.9 hPa West 3.2 km/h 4.8 km/h 81% 0.0 mm 0 W/m2
01:02 14.7 °C 11.5 °C 1015.9 hPa West 1.4 km/h 3.2 km/h 81% 0.0 mm 0 W/m2
01:07 14.6 °C 11.4 °C 1015.9 hPa WNW 3.2 km/h 6.4 km/h 81% 0.0 mm 0 W/m2
01:12 14.6 °C 11.4 °C 1015.9 hPa WNW 3.2 km/h 3.2 km/h 81% 0.0 mm 0 W/m2
01:17 14.6 °C 11.6 °C 1015.9 hPa WNW 3.2 km/h 6.4 km/h 82% 0.0 mm 0 W/m2
01:22 14.5 °C 11.5 °C 1015.9 hPa WNW 1.4 km/h 4.8 km/h 82% 0.0 mm 0 W/m2
01:27 14.5 °C 11.5 °C 1015.9 hPa WNW 3.2 km/h 3.2 km/h 82% 0.0 mm 0 W/m2
01:32 14.4 °C 11.4 °C 1015.9 hPa West 3.2 km/h 4.8 km/h 82% 0.0 mm 0 W/m2
01:38 14.4 °C 11.4 °C 1015.9 hPa West 1.4 km/h 4.8 km/h 82% 0.0 mm 0 W/m2
01:43 14.3 °C 11.3 °C 1016.3 hPa Calm   4.8 km/h 82% 0.0 mm 0 W/m2
01:48 14.3 °C 11.3 °C 1016.3 hPa Calm   3.2 km/h 82% 0.0 mm 0 W/m2
01:58 14.2 °C 11.2 °C 1016.3 hPa WNW 3.2 km/h 3.2 km/h 82% 0.0 mm 0 W/m2
02:03 14.2 °C 11.2 °C 1016.3 hPa WNW 1.4 km/h 4.8 km/h 82% 0.0 mm 0 W/m2
02:08 14.1 °C 11.3 °C 1016.3 hPa WNW 1.4 km/h 3.2 km/h 83% 0.0 mm 0 W/m2
02:13 14.1 °C 11.3 °C 1016.3 hPa West 4.7 km/h 4.8 km/h 83% 0.0 mm 0 W/m2
02:18 13.9 °C 11.1 °C 1016.3 hPa West 1.4 km/h 3.2 km/h 83% 0.0 mm 0 W/m2
02:23 13.8 °C 11 °C 1016.3 hPa West 4.7 km/h 4.8 km/h 83% 0.0 mm 0 W/m2
02:28 13.8 °C 11 °C 1016.3 hPa West 1.4 km/h 3.2 km/h 83% 0.0 mm 0 W/m2
02:33 13.8 °C 11 °C 1016.3 hPa Calm   3.2 km/h 83% 0.0 mm 0 W/m2
02:38 13.8 °C 11 °C 1016.3 hPa WNW 3.2 km/h 3.2 km/h 83% 0.0 mm 0 W/m2
02:43 13.7 °C 10.9 °C 1016.3 hPa WNW 3.2 km/h 3.2 km/h 83% 0.0 mm 0 W/m2
02:48 13.7 °C 10.9 °C 1016.3 hPa WNW 3.2 km/h 3.2 km/h 83% 0.0 mm 0 W/m2
02:53 13.6 °C 10.9 °C 1016.3 hPa West 1.4 km/h 3.2 km/h 84% 0.0 mm 0 W/m2
02:58 13.4 °C 10.8 °C 1016.3 hPa Calm   1.6 km/h 84% 0.0 mm 0 W/m2
03:03 13.3 °C 10.7 °C 1016.6 hPa Calm   1.6 km/h 84% 0.0 mm 0 W/m2
03:08 13.3 °C 10.8 °C 1016.6 hPa West 1.4 km/h 3.2 km/h 85% 0.0 mm 0 W/m2
03:13 13.2 °C 10.7 °C 1016.6 hPa West 1.4 km/h 3.2 km/h 85% 0.0 mm 0 W/m2
03:18 13.2 °C 10.7 °C 1016.6 hPa Calm   3.2 km/h 85% 0.0 mm 0 W/m2
Juneau County Weather
Compliments of Weather Underground - 2 mb